Terminal Aerodrome Forecast
Issued by NWS King Salmon, AK

Home | Current Version | Previous Version | Text Only | Print | Product List | Glossary On
Versions: 1 2 3 4 5 6 7 8 9 10 11 12 13 14 15 16 17 18 19 20 21 22 23 24 25 26 27 28 29 30
000
FTAK31 PANC 272320
TAFAKN
TAF
PAKN 272320Z 2800/2824 20009KT P6SM SCT080 SCT200
     FM280300 23010KT P6SM VCSH SCT045 BKN070
     FM281200 26004KT 2SM BR OVC002
     FM282100 25006KT P6SM FEW005 SCT010=

USA.gov is the U.S. government's official web portal to all federal, state and local government web resources and services.